Tracking 35030 objects as of 11-Aug-2026
HD Live streaming from Space Station
objects crossing your sky now

COSMOS 57 DEB


COSMOS 57 DEB is no longer on orbit


NORAD ID: 1264
Int'l Code: 1965-012FE
Launch date: February 22, 1965
Source: Commonwealth of Independent States (former USSR) (CIS)
Launch site: TYURATAM MISSILE AND SPACE COMPLEX (TTMTR)
Decay date: 1965-03-26

Note: This is SATELLITE DEBRIS
Your satellite tracking list
Your tracking list is empty




NASA's NSSDC Master Catalog

Two Line Element Set (TLE):
1 01264U 65012 FE 65077.72228596  .00012170 +31348-6 +00000-0 0  9999
2 01264 064.7326 213.0120 0189612 058.4493 303.4163 15.91814006003886
Source of the keplerian elements: AFSPC